Gardner, KS

4:24 PM CDT on August 28, 2016 (GMT -0500)
New Century Aircenter

Weather History for KIXD - January, 2014

Change the Weather History Date:

Monday, January 20, 2014

  Actual Average Record
Temperature  
Mean Temperature 38 °F -  
Max Temperature 52 °F 37 °F 62 °F (1997)
Min Temperature 19 °F 19 °F 3 °F (2008)
Degree Days  
Heating Degree Days 28    
Moisture  
Dew Point 21 °F    
Average Humidity 56    
Maximum Humidity 75    
Minimum Humidity 36    
Precipitation  
Precipitation 0.00 in - - ()
Sea Level Pressure  
Sea Level Pressure 30.04 in    
Wind  
Wind Speed 8 mph (NW)    
Max Wind Speed 30 mph    
Max Gust Speed 38 mph    
Visibility 10 miles    
Events Snow    
Averages and records for this station are not official NWS values.
T = Trace of Precipitation, MM = Missing Value Source: NWS Daily Summary

Daily Weather History Graph

Daily Weather History Graph

Search for Another Location

Airport or City:

Trip Planner

Search our weather history database for the weather conditions in past years. The results will help you decide how hot, cold, wet, or windy it might be!

Date:

Astronomy

Jan. 20, 2014 Rise Set
Actual Time 7:34 AM CST 5:27 PM CST
Civil Twilight 7:05 AM CST 5:56 PM CST
Nautical Twilight 6:32 AM CST 6:28 PM CST
Astronomical Twilight 6:01 AM CST 7:00 PM CST
Moon 10:00 PM CST (1/20) 9:37 AM CST (1/20)
Length of Visible Light 10h 50m
Length of Day
9h 53m
Waning Gibbous, 82% of the Moon is Illuminated
Jan 20
Waning Gibbous
Jan 23
Last Quarter
Jan 30
New
Feb 6
First Quarter
Feb 14
Full

Hourly Weather History & Observations

Time (CST) Temp. Windchill Dew Point Humidity Pressure Visibility Wind Dir Wind Speed Gust Speed Precip Events Conditions
12:53 AM 34.0 °F - 21.0 °F 59% 29.87 in 10.0 mi Calm Calm - N/A   Clear
1:53 AM 36.0 °F - 21.9 °F 57% 29.86 in 10.0 mi Calm Calm - N/A   Clear
2:53 AM 27.0 °F 23.0 °F 19.9 °F 75% 29.88 in 10.0 mi South 3.5 mph - N/A   Clear
3:53 AM 28.9 °F 25.2 °F 21.0 °F 72% 29.88 in 10.0 mi South 3.5 mph - N/A   Clear
4:53 AM 26.1 °F - 19.0 °F 75% 29.90 in 10.0 mi Calm Calm - N/A   Clear
5:53 AM 28.0 °F - 21.0 °F 75% 29.92 in 10.0 mi Calm Calm - N/A   Clear
6:53 AM 32.0 °F 26.4 °F 21.0 °F 64% 29.94 in 10.0 mi NNE 5.8 mph - N/A   Clear
7:53 AM 30.0 °F 25.2 °F 21.0 °F 69% 29.96 in 10.0 mi North 4.6 mph - N/A   Clear
8:53 AM 36.0 °F - 28.0 °F 73% 29.99 in 10.0 mi Calm Calm - N/A   Clear
9:53 AM 42.1 °F 37.1 °F 27.0 °F 55% 30.01 in 10.0 mi NNW 8.1 mph - N/A   Clear
10:53 AM 46.0 °F - 27.0 °F 47% 30.02 in 10.0 mi Calm Calm - N/A   Clear
11:53 AM 50.0 °F - 27.0 °F 41% 30.02 in 10.0 mi NW 9.2 mph - N/A   Clear
12:53 PM 50.0 °F - 28.0 °F 43% 30.01 in 10.0 mi NW 10.4 mph - N/A   Clear
1:53 PM 52.0 °F - 26.1 °F 37% 30.00 in 10.0 mi NW 17.3 mph - N/A   Clear
2:53 PM 48.9 °F - 27.0 °F 43% 30.02 in 10.0 mi NW 15.0 mph - N/A   Clear
3:53 PM 48.9 °F - 26.1 °F 41% 30.05 in 10.0 mi NW 18.4 mph - N/A   Clear
4:53 PM 48.0 °F - 21.9 °F 36% 30.08 in 10.0 mi NW 24.2 mph 33.4 mph N/A   Mostly Cloudy
5:53 PM 44.1 °F 36.8 °F 21.0 °F 40% 30.11 in 10.0 mi NW 16.1 mph - N/A   Scattered Clouds
6:53 PM 39.9 °F 33.4 °F 19.0 °F 43% 30.12 in 10.0 mi WNW 10.4 mph - N/A   Clear
7:53 PM 37.9 °F 27.1 °F 21.0 °F 51% 30.15 in 10.0 mi NNW 23.0 mph 33.4 mph N/A   Clear
8:53 PM 32.0 °F 18.4 °F 19.0 °F 59% 30.19 in 10.0 mi NNW 26.5 mph 38.0 mph N/A   Clear
9:53 PM 25.0 °F 8.1 °F 12.9 °F 60% 30.24 in 10.0 mi NNW 29.9 mph 34.5 mph N/A   Partly Cloudy
10:32 PM 24.1 °F 8.0 °F 12.0 °F 60% 30.24 in 10.0 mi NW 25.3 mph 38.0 mph N/A   Mostly Cloudy
10:53 PM 23.0 °F 6.0 °F 12.0 °F 63% 30.28 in 10.0 mi NNW 27.6 mph 38.0 mph N/A   Overcast
11:53 PM 19.9 °F 2.8 °F 10.9 °F 68% 30.31 in 8.0 mi NNW 24.2 mph 31.1 mph 0.00 in Snow Light Snow